Regional Weather Roundup
Issued by NWS Newport/Morehead, NC

Current Version | Previous Version | Text Only | Print | Product List | Glossary Off
Versions: 1 2 3 4 5 6 7 8 9 10 11 12 13 14 15 16 17 18 19 20 21 22 23 24 25 26 27 28 29 30 31 32 33 34 35 36 37 38 39 40 41 42 43 44 45 46 47 48 49 50
000 ASUS42 KMHX 270513 RWRMHX WEATHER ROUNDUP FOR EASTERN NORTH CAROLINA NATIONAL WEATHER SERVICE NEWPORT/MOREHEAD CITY NC 100 AM EDT WED JUL 27 2016 NOTE: "FAIR" INDICATES FEW OR NO CLOUDS BELOW 12,000 FEET WITH NO SIGNIFICANT WEATHER AND/OR OBSTRUCTIONS TO VISIBILITY NCZ015>017-031-032-045>047-102-103-270600- NORTH COAST CITY SKY/WX TMP DP RH WIND PRES REMARKS EDENTON CLOUDY 85 77 77 SW9 29.96S ELIZABETH CITY CLOUDY 77 75 93 CALM 29.95F KITTY HAWK PTCLDY 81 77 87 SW5 29.95S MANTEO N/A 82 78 88 W8 29.97S $$ NCZ045>047-081-094-103-104-270600- CENTRAL COAST CITY SKY/WX TMP DP RH WIND PRES REMARKS FRISCO CLOUDY 83 78 85 W12 29.98S $$ NCZ095-097-098-100-101-270600- SOUTHERN COAST CITY SKY/WX TMP DP RH WIND PRES REMARKS BEAUFORT CLOUDY 83 79 88 SW10 29.99F CEDAR ISLAND NOT AVBL JACKSONVILLE CLEAR 80 73 79 SW7 29.98F PINEY ISLAND NOT AVBL WILMINGTON CLEAR 81 76 84 SW8 30.00F $$ NCZ011>013-027>030-043-044-078>080-089-090>093-098-270600- COASTAL PLAIN CITY SKY/WX TMP DP RH WIND PRES REMARKS AHOSKIE CLOUDY 75 74 98 N6 29.98R CLINTON CLEAR 81 76 87 S3 29.99S ELIZABETHTOWN MOCLDY 81 76 84 S5 30.00R GOLDSBORO PTCLDY 82 79 90 S5 29.97S GREENVILLE MOCLDY 81 79 94 W5 29.99S HAVELOCK PTCLDY 79 75 87 SW5 30.00S KENANSVILLE NOT AVBL KINSTON MOCLDY 81 74 80 SW6 29.99S NEW BERN CLEAR 79 74 84 SW6 29.99F RICHLANDS CLEAR 77 75 93 SW5 29.99F ROCKY MOUNT CLOUDY 80 78 94 S3 29.98S WASHINGTON MOCLDY 81 74 77 W8 29.97S WHITEVILLE CLEAR 80 75 85 SW3 30.00S $$ AMZ130-135-150-152-154-156-158-170-250-252-270-ANZ085-086-088-633-658-670-270600- MARINE OBSERVATIONS STATION/POSITION TIME TEMP WIND PRES WAVE SWELL AIR SEA DIR/SP/G HT/PER HT/PER (UTC) (F) (DEG/KT/KT) (MB) (FT/S) (FT/S) CHESAPEAKE LIGHT NOT AVBL 64 E VA BEACH 0450 81 80 180/ 2/ 2 1013.7 4/ 6 3/ 6 DUCK 0400 83 65 220/ 5/ 7 1014.0 2 E DUCK 0411 70 N/A 1/ 6 OREGON INLET 0400 85 85 220/ 10/ 12 1014.7 13E OREGON INLT 0500 82 N/A 3/ 6 2/ 6 HATTERAS CG 0400 82 83 230/ 11/ 17 1014.7 DIAMOND BUOY 0450 84 84 240/ 19/ 23 1015.0 5/ 5 CAPE LOOKOUT 0500 83 240/ 11/ 15 1015.3 BEAUFORT LAB 0400 83 83 250/ 7/ 11 1015.3 30 SE NEW RVR IN 0408 84 85 230/ 16/ 21 1015.8 30 SE NEW RVR IN 0425 85 N/A 4/ 5 27 SE WRIGHTSVLE 0408 84 84 230/ 14/ 17 1016.3 5 SE WRIGHTSVLE 0408 82 80 240/ 10/ 14 1016.9 225 S CAPE HAT 0450 84 84 230/ 12/ 16 1017.7 2/ 7 2/ 7 41 SE CHARLESTON 0450 85 86 220/ 16/ 19 1016.3 3/ 4 2/ 8 $$

USA.gov is the U.S. government's official web portal to all federal, state and local government web resources and services.